Location: Los Gatos B&B
(42.6926°N, 77.0646°W)
Time: 11:07:12
(UTC-04:00)

SL-16 R/B - Visible Passes

Search period start: 30 October 2014 00:00
Search period end: 08 November 2014 23:00
Orbit: 841 x 850 km, 71.0° (Epoch: 30 October)

Date Brightness Start Highest point End Pass type
(mag) Time Alt. Az. Time Alt. Az. Time Alt. Az.
30 Oct 4.9 03:44:28 11° ESE 03:44:28 11° ESE 03:44:38 10° ESE visible
30 Oct 3.1 05:26:29 34° SSW 05:26:29 34° SSW 05:29:47 10° S visible
30 Oct 2.6 18:27:33 10° S 18:32:51 42° ESE 18:38:11 10° NE visible
30 Oct 3.9 20:12:07 10° WSW 20:17:06 31° NW 20:22:06 10° N visible
31 Oct 4.1 05:14:35 17° S 05:14:35 17° S 05:15:51 10° S visible
31 Oct 3.9 19:58:06 10° WSW 20:03:07 32° NW 20:08:10 10° N visible
01 Nov 3.8 19:44:04 10° WSW 19:49:07 32° NW 19:54:13 10° N visible
02 Nov 3.8 18:30:03 10° WSW 18:35:08 33° NW 18:40:16 10° N visible
03 Nov 3.8 18:16:01 10° WSW 18:21:09 34° NW 18:26:19 10° N visible
04 Nov 3.7 18:02:00 10° WSW 18:07:10 35° WNW 18:12:22 10° N visible
05 Nov 3.7 17:47:58 10° WSW 17:53:11 36° WNW 17:58:25 10° N visible
06 Nov 3.6 17:33:57 10° SW 17:39:11 37° WNW 17:44:28 10° N visible
07 Nov 3.6 17:19:56 10° SW 17:25:12 38° WNW 17:30:30 10° N visible
